GW0092 Weather Reports


time (UTC)temp
F
wind
direction
speed
knots
gust
knots
rain 1hr
in
rain 24hr
in
rain mn
in
humidity
%
barometer
mb
20260904034601 78 0 0.0 0.0 0.00 0.00 0.00 100 1014.0
20260904033059 78 0 0.0 0.0 0.00 0.00 0.00 99 1014.1
20260904031553 77 0 0.0 0.0 0.00 0.00 0.00 99 1014.2
20260904030103 78 0 0.0 0.0 0.00 0.00 0.00 99 1013.8
20260904024601 78 0 0.0 0.0 0.00 0.00 0.00 99 1013.9
20260904023103 78 0 0.0 0.0 0.00 0.00 0.00 99 1013.9
20260904021602 78 0 0.0 0.0 0.00 0.00 0.00 99 1013.9
20260904020101 78 0 0.0 0.0 0.00 0.00 0.00 99 1014.3
20260904014600 78 0 0.0 0.0 0.00 0.00 0.00 99 1014.5
20260904013102 78 0 0.0 0.0 0.00 0.00 0.00 99 1014.8
20260904011613 78 0 0.0 0.0 0.00 0.00 0.00 99 1015.1
20260904010108 78 0 0.0 0.0 0.00 0.00 0.00 98 1015.1
20260904004603 78 0 0.0 0.0 0.00 0.00 0.00 98 1014.9
20260904003102 79 0 0.0 0.0 0.00 0.00 0.00 97 1014.8
20260904001558 79 0 0.0 0.0 0.00 0.00 0.00 96 1014.6
20260903234604 80 0 0.0 0.0 0.00 0.00 0.00 95 1014.1
20260903233102 81 0 0.0 0.0 0.00 0.00 0.00 94 1014.0
20260903231601 82 0 0.0 0.0 0.00 0.00 0.00 93 1014.1
20260903230104 82 0 0.0 0.0 0.00 0.00 0.00 92 1013.9
20260903224602 83 0 0.0 0.0 0.00 0.00 0.00 90 1013.9
20260903223058 84 0 0.0 0.9 0.00 0.00 0.00 88 1013.9
20260903221604 85 0 0.0 0.9 0.00 0.00 0.00 86 1014.1
20260903220123 85 0 0.9 4.3 0.00 0.00 0.00 85 1014.1
20260903214600 86 78 0.0 4.3 0.00 0.00 0.00 84 1014.2
20260903213101 87 0 0.0 3.5 0.00 0.00 0.00 82 1014.3
20260903211558 88 321 0.9 4.3 0.00 0.00 0.00 81 1014.4
20260903210109 88 8 0.0 4.3 0.00 0.00 0.00 81 1014.4
20260903204600 88 18 1.7 4.3 0.00 0.00 0.00 81 1014.6
20260903203130 87 47 0.9 6.1 0.00 0.00 0.00 80 1014.6
20260903201606 88 62 0.9 5.2 0.00 0.00 0.00 80 1014.9
20260903200104 88 0 0.0 3.5 0.00 0.00 0.00 81 1014.7
20260903194602 86 304 0.9 6.1 0.00 0.00 0.00 81 1015.0
20260903193101 86 294 1.7 5.2 0.00 0.00 0.00 83 1015.1
20260903191604 85 0 0.9 4.3 0.00 0.00 0.00 86 1015.2
20260903184601 85 0 0.0 3.5 0.00 0.00 0.00 87 1015.6
20260903183102 85 343 0.9 2.6 0.00 0.00 0.00 86 1015.7
20260903181600 85 0 0.9 3.5 0.00 0.00 0.00 87 1016.0
20260903180107 84 123 0.0 0.9 0.00 0.00 0.00 89 1015.8
20260903174609 83 0 0.0 0.9 0.00 0.00 0.00 90 1016.1
20260903173101 84 0 0.0 2.6 0.00 0.00 0.00 87 1015.9
20260903171615 85 150 0.9 1.7 0.00 0.00 0.00 87 1016.2
20260903170107 85 0 0.0 3.5 0.00 0.00 0.00 86 1016.2
20260903164637 85 70 0.0 4.3 0.00 0.00 0.00 83 1016.5
20260903163103 85 0 0.9 2.6 0.00 0.00 0.00 88 1016.7
20260903161608 84 86 0.0 3.5 0.00 0.00 0.00 84 1016.8
20260903160105 83 77 0.9 3.5 0.00 0.00 0.00 86 1017.1
20260903154602 83 143 0.9 2.6 0.00 0.00 0.00 89 1017.3
20260903153126 82 93 0.0 4.3 0.00 0.00 0.00 90 1017.0
20260903151601 81 0 0.0 2.6 0.00 0.00 0.00 90 1016.8
20260903150101 81 131 1.7 4.3 0.00 0.00 0.00 91 1016.9
20260903144606 81 110 0.9 4.3 0.00 0.00 0.00 91 1017.0
20260903143105 80 127 0.9 3.5 0.00 0.00 0.00 95 1016.8
20260903141602 79 117 0.0 2.6 0.00 0.00 0.00 97 1017.0
20260903140105 78 248 0.0 1.7 0.00 0.00 0.00 99 1017.2
20260903134611 77 129 0.0 1.7 0.00 0.00 0.00 100 1017.5
20260903133103 76 319 0.0 0.9 0.00 0.00 0.00 100 1017.8
20260903131606 75 0 0.0 0.9 0.00 0.00 0.00 100 1017.8
20260903124610 74 0 0.0 0.9 0.00 0.00 0.00 100 1018.6
20260903123104 74 0 0.0 0.9 0.00 0.00 0.00 100 1018.6
20260903121615 73 0 0.0 0.0 0.00 0.00 0.00 100 1018.5
20260903120110 73 0 0.0 0.0 0.00 0.00 0.00 100 1018.6
20260903114601 73 0 0.0 0.0 0.00 0.00 0.00 100 1018.4
20260903113144 72 0 0.0 0.9 0.00 0.00 0.00 100 1018.2
20260903111602 72 0 0.0 0.9 0.00 0.00 0.00 100 1018.0
20260903110105 72 0 0.0 0.9 0.00 0.00 0.00 100 1017.7
20260903104611 71 0 0.0 0.9 0.00 0.00 0.00 100 1017.7
20260903103106 71 0 0.0 0.9 0.00 0.00 0.00 100 1017.5
20260903101603 72 0 0.0 0.0 0.00 0.00 0.00 100 1017.2
20260903094601 72 0 0.0 0.9 0.00 0.00 0.00 100 1017.2
20260903093106 72 0 0.0 0.0 0.00 0.00 0.00 100 1017.3
20260903091602 73 0 0.0 0.9 0.00 0.00 0.00 100 1017.3
20260903090058 73 285 0.0 0.9 0.00 0.00 0.00 100 1017.7
20260903084609 73 335 0.9 2.6 0.00 0.00 0.00 100 1017.9
20260903083105 71 295 0.0 1.7 0.00 0.00 0.00 100 1017.8
20260903081601 71 0 0.0 0.0 0.00 0.00 0.00 100 1017.0
20260903074603 71 0 0.0 0.0 0.00 0.03 0.00 100 1016.7
20260903073106 71 0 0.0 0.0 0.00 0.03 0.00 100 1016.6
20260903071613 72 0 0.0 0.0 0.00 0.03 0.00 100 1016.7
20260903064603 72 0 0.0 0.0 0.00 0.08 0.00 100 1016.4
20260903063103 72 0 0.0 0.0 0.00 0.08 0.00 100 1016.6
20260903061606 72 0 0.0 0.0 0.00 0.08 0.00 100 1016.8
20260903060101 72 0 0.0 0.0 0.00 0.08 0.00 100 1017.2
20260903054605 72 0 0.0 0.0 0.00 0.37 0.00 100 1017.2
20260903053102 72 0 0.0 0.0 0.00 0.37 0.00 100 1017.3
20260903051617 72 0 0.0 0.9 0.00 0.37 0.00 99 1017.7
20260903050115 72 0 0.0 0.0 0.00 0.37 0.00 100 1017.7
20260903044602 72 0 0.0 0.0 0.00 0.37 0.00 99 1018.0
20260903043208 72 0 0.0 0.0 0.00 0.37 0.00 100 1017.9
20260903041555 73 0 0.0 0.0 0.00 0.37 0.00 99 1017.7
20260903040106 73 0 0.0 0.0 0.00 0.37 0.00 100 1017.5